Colwell, IA

7:46 PM CST on February 19, 2017 (GMT -0600)
Charles City Municipal

Weather History for KCCY - March, 2014

Change the Weather History Date:

Sunday, March 30, 2014

  Actual Average Record
Temperature  
Mean Temperature 48 °F -  
Max Temperature 64 °F 50 °F 82 °F (1986)
Min Temperature 33 °F 30 °F 1 °F (1964)
Degree Days  
Heating Degree Days 16    
Moisture  
Dew Point 35 °F    
Average Humidity 65    
Maximum Humidity 87    
Minimum Humidity 44    
Precipitation  
Precipitation 0.00 in - - ()
Sea Level Pressure  
Sea Level Pressure 29.96 in    
Wind  
Wind Speed 16 mph (SSE)    
Max Wind Speed 28 mph    
Max Gust Speed 37 mph    
Visibility 10 miles    
Events      
Averages and records for this station are not official NWS values.
T = Trace of Precipitation, MM = Missing Value Source: NWS Daily Summary

Daily Weather History Graph

Daily Weather History Graph

Search for Another Location

Airport or City:

Trip Planner

Search our weather history database for the weather conditions in past years. The results will help you decide how hot, cold, wet, or windy it might be!

Date:

Astronomy

Mar. 30, 2014 Rise Set
Actual Time 6:55 AM CDT 7:34 PM CDT
Civil Twilight 6:27 AM CDT 8:03 PM CDT
Nautical Twilight 5:53 AM CDT 8:37 PM CDT
Astronomical Twilight 5:18 AM CDT 9:12 PM CDT
Moon 6:42 AM CDT (3/30) 7:48 PM CDT (3/30)
Length of Visible Light 13h 35m
Length of Day
12h 38m
Waning Crescent, 0% of the Moon is Illuminated
Mar 30
Waning Crescent
Mar 30
New
Apr 7
First Quarter
Apr 15
Full
Apr 22
Last Quarter

Hourly Weather History & Observations

Time (CDT) Temp. Windchill Dew Point Humidity Pressure Visibility Wind Dir Wind Speed Gust Speed Precip Events Conditions
12:15 AM 35.6 °F 27.5 °F 30.2 °F 81% 30.15 in 10.0 mi SE 11.5 mph - N/A   Clear
12:35 AM 35.6 °F 26.6 °F 30.2 °F 81% 30.15 in 10.0 mi SE 13.8 mph - N/A   Clear
12:55 AM 35.6 °F 27.1 °F 30.2 °F 81% 30.14 in 10.0 mi SE 12.7 mph - N/A   Clear
1:15 AM 35.6 °F 26.2 °F 30.2 °F 81% 30.12 in 10.0 mi SE 15.0 mph - N/A   Clear
1:35 AM 35.6 °F 26.2 °F 30.2 °F 81% 30.11 in 10.0 mi SSE 15.0 mph - N/A   Clear
1:55 AM 35.6 °F 26.6 °F 30.2 °F 81% 30.10 in 10.0 mi SE 13.8 mph - N/A   Clear
2:15 AM 35.6 °F 26.6 °F 30.2 °F 81% 30.10 in 10.0 mi SSE 13.8 mph - N/A   Clear
2:35 AM 35.6 °F 26.6 °F 30.2 °F 81% 30.10 in 10.0 mi SSE 13.8 mph - N/A   Clear
2:55 AM 35.6 °F 27.1 °F 30.2 °F 81% 30.10 in 10.0 mi SSE 12.7 mph - N/A   Clear
3:15 AM 35.6 °F 27.5 °F 30.2 °F 81% 30.09 in 10.0 mi SSE 11.5 mph - N/A   Clear
3:35 AM 33.8 °F 25.8 °F 30.2 °F 87% 30.08 in 10.0 mi SE 10.4 mph - N/A   Clear
3:55 AM 33.8 °F 24.8 °F 30.2 °F 87% 30.08 in 10.0 mi SSE 12.7 mph - N/A   Clear
4:15 AM 33.8 °F 24.8 °F 30.2 °F 87% 30.06 in 10.0 mi SSE 12.7 mph - N/A   Clear
4:35 AM 33.8 °F 25.8 °F 30.2 °F 87% 30.06 in 10.0 mi SE 10.4 mph - N/A   Clear
4:55 AM 35.6 °F 26.6 °F 30.2 °F 81% 30.05 in 10.0 mi SSE 13.8 mph - N/A   Clear
5:15 AM 35.6 °F 27.1 °F 30.2 °F 81% 30.05 in 10.0 mi SSE 12.7 mph - N/A   Clear
5:35 AM 35.6 °F 27.1 °F 30.2 °F 81% 30.06 in 10.0 mi SSE 12.7 mph - N/A   Scattered Clouds
5:55 AM 35.6 °F 25.9 °F 30.2 °F 81% 30.05 in 10.0 mi SSE 16.1 mph - N/A   Mostly Cloudy
6:15 AM 35.6 °F 25.5 °F 30.2 °F 81% 30.05 in 10.0 mi SSE 17.3 mph 24.2 mph N/A   Overcast
6:35 AM 37.4 °F 27.5 °F 30.2 °F 75% 30.04 in 10.0 mi SSE 18.4 mph - N/A   Overcast
6:55 AM 37.4 °F 26.9 °F 30.2 °F 75% 30.03 in 9.0 mi South 20.7 mph - N/A   Mostly Cloudy
7:15 AM 37.4 °F 26.6 °F 30.2 °F 75% 30.03 in 9.0 mi South 21.9 mph 27.6 mph N/A   Partly Cloudy
7:35 AM 37.4 °F 27.2 °F 30.2 °F 75% 30.03 in 10.0 mi South 19.6 mph 26.5 mph N/A   Clear
7:55 AM 39.2 °F 28.7 °F 32.0 °F 75% 30.02 in 10.0 mi South 23.0 mph - N/A   Clear
8:15 AM 39.2 °F 28.7 °F 32.0 °F 75% 30.02 in 10.0 mi SSE 23.0 mph - N/A   Clear
8:35 AM 39.2 °F 29.0 °F 32.0 °F 75% 30.01 in 10.0 mi South 21.9 mph 32.2 mph N/A   Clear
8:55 AM 41.0 °F 31.4 °F 32.0 °F 70% 30.01 in 10.0 mi South 21.9 mph 28.8 mph N/A   Clear
9:15 AM 41.0 °F 31.4 °F 32.0 °F 70% 30.00 in 10.0 mi South 21.9 mph 29.9 mph N/A   Clear
9:35 AM 42.8 °F 34.0 °F 33.8 °F 70% 30.00 in 10.0 mi South 20.7 mph 29.9 mph N/A   Clear
9:55 AM 44.6 °F 35.7 °F 33.8 °F 66% 29.99 in 10.0 mi South 24.2 mph - N/A   Clear
10:15 AM 44.6 °F 35.1 °F 35.6 °F 71% 29.99 in 10.0 mi South 27.6 mph 36.8 mph N/A   Clear
10:35 AM 46.4 °F 38.1 °F 35.6 °F 66% 29.98 in 9.0 mi South 24.2 mph 29.9 mph N/A   Clear
10:55 AM 46.4 °F 38.7 °F 35.6 °F 66% 29.99 in 9.0 mi South 20.7 mph 28.8 mph N/A   Clear
11:15 AM 48.2 °F - 37.4 °F 66% 29.99 in 10.0 mi South 21.9 mph 28.8 mph N/A   Clear
11:35 AM 50.0 °F - 37.4 °F 62% 29.98 in 9.0 mi South 25.3 mph 33.4 mph N/A   Clear
11:55 AM 51.8 °F - 39.2 °F 62% 29.97 in 9.0 mi South 20.7 mph 29.9 mph N/A   Clear
12:15 PM 51.8 °F - 39.2 °F 62% 29.96 in 10.0 mi South 21.9 mph 33.4 mph N/A   Clear
12:35 PM 53.6 °F - 39.2 °F 58% 29.94 in 10.0 mi South 25.3 mph 31.1 mph N/A   Clear
12:55 PM 55.4 °F - 39.2 °F 54% 29.93 in 10.0 mi South 25.3 mph 32.2 mph N/A   Clear
1:15 PM 55.4 °F - 41.0 °F 58% 29.92 in 10.0 mi South 26.5 mph 36.8 mph N/A   Clear
1:35 PM 57.2 °F - 41.0 °F 55% 29.92 in 10.0 mi South 24.2 mph 32.2 mph N/A   Clear
1:55 PM 57.2 °F - 41.0 °F 55% 29.92 in 10.0 mi South 23.0 mph 29.9 mph N/A   Clear
2:15 PM 57.2 °F - 41.0 °F 55% 29.91 in 10.0 mi South 23.0 mph 28.8 mph N/A   Clear
2:35 PM 59.0 °F - 41.0 °F 51% 29.90 in 10.0 mi South 21.9 mph 27.6 mph N/A   Clear
2:55 PM 60.8 °F - 42.8 °F 52% 29.89 in 10.0 mi South 19.6 mph - N/A   Clear
3:15 PM 60.8 °F - 41.0 °F 48% 29.88 in 10.0 mi South 20.7 mph - N/A   Clear
3:35 PM 62.6 °F - 42.8 °F 48% 29.87 in 10.0 mi South 19.6 mph - N/A   Clear
3:55 PM 62.6 °F - 41.0 °F 45% 29.87 in 10.0 mi SSE 21.9 mph - N/A   Clear
4:15 PM 62.6 °F - 42.8 °F 48% 29.86 in 10.0 mi SSE 19.6 mph - N/A   Clear
4:35 PM 64.4 °F - 42.8 °F 45% 29.85 in 10.0 mi South 19.6 mph 26.5 mph N/A   Clear
4:55 PM 62.6 °F - 41.0 °F 45% 29.84 in 10.0 mi South 19.6 mph 25.3 mph N/A   Clear
5:15 PM 62.6 °F - 41.0 °F 45% 29.83 in 10.0 mi South 23.0 mph - N/A   Clear
5:35 PM 62.6 °F - 41.0 °F 45% 29.83 in 10.0 mi South 19.6 mph - N/A   Clear
5:55 PM 60.8 °F - 41.0 °F 48% 29.84 in 10.0 mi South 16.1 mph 24.2 mph N/A   Clear
6:15 PM 59.0 °F - 41.0 °F 51% 29.84 in 10.0 mi South 15.0 mph - N/A   Partly Cloudy
6:35 PM 59.0 °F - 39.2 °F 48% 29.84 in 10.0 mi SSE 12.7 mph 19.6 mph N/A   Partly Cloudy
6:55 PM 59.0 °F - 37.4 °F 45% 29.83 in 10.0 mi SSE 13.8 mph 19.6 mph N/A   Scattered Clouds
7:15 PM 57.2 °F - 37.4 °F 48% 29.84 in 10.0 mi SSE 12.7 mph - N/A   Partly Cloudy
7:35 PM 57.2 °F - 35.6 °F 44% 29.83 in 10.0 mi SSE 11.5 mph - N/A   Partly Cloudy
7:55 PM 55.4 °F - 35.6 °F 47% 29.84 in 10.0 mi SSE 12.7 mph - N/A   Partly Cloudy
8:15 PM 53.6 °F - 35.6 °F 51% 29.84 in 10.0 mi SE 11.5 mph - N/A   Partly Cloudy
8:35 PM 51.8 °F - 37.4 °F 58% 29.84 in 10.0 mi SE 13.8 mph - N/A   Clear
8:55 PM 51.8 °F - 35.6 °F 54% 29.84 in 10.0 mi SE 15.0 mph - N/A   Clear
9:15 PM 51.8 °F - 37.4 °F 58% 29.84 in 10.0 mi SE 17.3 mph - N/A   Clear
9:35 PM 50.0 °F - 37.4 °F 62% 29.84 in 10.0 mi SE 17.3 mph - N/A   Clear
9:55 PM 50.0 °F - 37.4 °F 62% 29.84 in 10.0 mi SE 16.1 mph 21.9 mph N/A   Clear
10:10 PM 50.0 °F - 37.4 °F 62% 29.84 in 10.0 mi SE 16.1 mph - N/A   Clear
10:35 PM 50.0 °F - 37.4 °F 62% 29.84 in 10.0 mi SE 16.1 mph - N/A   Clear
10:55 PM 50.0 °F - 35.6 °F 58% 29.84 in 10.0 mi SSE 16.1 mph 21.9 mph N/A   Clear
11:15 PM 48.2 °F - 35.6 °F 62% 29.83 in 10.0 mi SE 18.4 mph - N/A   Clear
11:35 PM 48.2 °F - 35.6 °F 62% 29.83 in 10.0 mi SSE 20.7 mph 26.5 mph N/A   Clear
11:55 PM 48.2 °F - 37.4 °F 66% 29.83 in 10.0 mi SE 17.3 mph 24.2 mph N/A   Clear